Location: Knowlton
(51.2333°N, 1.2667°E)
Time: 09:35:22
(UTC+00:00)

Cosmos 2058 Rocket - Pass Details

Date: 18 April 2021
Orbit: 611 x 638 km, 82.5° (Epoch: 16 May)

Event Time Altitude Azimuth Distance (km) Brightness Sun altitude
Rises 20:30:22 0° 204° (SSW) 2,869 6.3 -13.7°
Reaches altitude 10° 20:32:38 10° 210° (SSW) 1,967 5.5 -14.0°
Maximum altitude 20:36:51 48° 285° (WNW) 807 4.1 -14.5°
Drops below altitude 10° 20:41:06 10° 1° (N) 1,981 6.2 -15.0°
Sets 20:43:24 0° 7° (N) 2,892 7.0 -15.2°
